Other Public Products
Issued by NWS Grand Forks, ND

Current Version | Previous Version | Text Only | Print | Product List | Glossary On
Versions: 1 2 3 4 5 6 7 8 9 10 11 12 13 14 15 16 17 18 19 20 21 22 23 24 25 26 27 28 29 30 31 32 33 34 35 36 37 38 39 40 41 42 43 44 45 46 47 48 49 50
000
FPUS83 KFGF 221210
OPUFGF
PRAIRIE TO PINES WEATHER ROUNDUP
NATIONAL WEATHER SERVICE EASTERN NORTH DAKOTA/GRAND FORKS ND
700 AM CDT TUE JUL 22 2014

 **SATELLITE DATA USED TO AUGMENT SKY COVER AT AUTOMATED STATIONS**
 *****  WEATHER ACROSS EASTERN NORTH DAKOTA  *****

CITY           SKY/WX    TMP DP  RH WIND       PRES   REMARKS
GRAND FORKS    PTCLDY    62  59  90 NW10      30.01R
6HR MIN TEMP:  62; 6HR MAX TEMP:  66;

GRAND FORKS AF PTCLDY    62  62  99 NW9       30.03R
GRAND CITY NWS   N/A     63 N/A N/A N9          N/A
BUXTON         NOT AVBL
DEVILS LAKE    CLEAR     61  55  82 NW7       30.06R
6HR MIN TEMP:  61; 6HR MAX TEMP:  64;

FARGO          CLEAR     64  61  90 NW8       30.01R
6HR MIN TEMP:  64; 6HR MAX TEMP:  68; 6HR PCP: TRACE;

WAHPETON ARPT  PTSUNNY   64  61  88 NW15      30.01R
$$

 *****  WEATHER ACROSS CENTRAL AND WESTERN NORTH DAKOTA  *****

CITY           SKY/WX    TMP DP  RH WIND       PRES   REMARKS
JAMESTOWN      CLEAR     63  60  90 NW9       30.07R
6HR MIN TEMP:  62; 6HR MAX TEMP:  67;

BISMARCK       CLOUDY    66  62  87 NW5       30.14R
6HR MIN TEMP:  62; 6HR MAX TEMP:  66;

MINOT          CLEAR     59  57  93 W3        30.11R
6HR MIN TEMP:  58; 6HR MAX TEMP:  63;

MINOT AFB      CLEAR     59  59 100 NW6       30.11R
6HR MIN TEMP:  58; 6HR MAX TEMP:  62;

GARRISON         N/A     56  55  97 N5        30.12R
6HR MIN TEMP:  54; 6HR MAX TEMP:  63;

WILLISTON      CLOUDY    56  54  93 CALM      30.13R FOG
6HR MIN TEMP:  54; 6HR MAX TEMP:  62;

DICKINSON      FOG       54  53  97 CALM      30.14R VSB 1/4
6HR MIN TEMP:  53; 6HR MAX TEMP:  61;

HETTINGER      PTCLDY    55  54  96 N3        30.18R FOG
6HR MIN TEMP:  54; 6HR MAX TEMP:  61;

$$

 *****  OTHER OBSERVATIONS NORTHEAST NORTH DAKOTA  *****

CITY           SKY/WX    TMP DP  RH WIND       PRES   REMARKS
WALHALLA         N/A     61  61 100 NW6         N/A
LANGDON        FAIR      57  55  94 N6        30.07R
CAVALIER       FAIR      63  57  82 NW7       30.03R
GRAFTON        FAIR      63  61  94 NW9       30.02R
CANDO          FAIR      59  57  94 NW6       30.09R
FORT TOTTEN    NOT AVBL
ROLLA          FAIR      59  59 100 NW6       30.11R
RUGBY          FOG       59  59 100 NW6       30.09R VSB<1/4
 ***** THE ABOVE OBSERVATIONS ARE NON NWS ARE NOT QUALITY
        CONTROLLED AND MAY MIS-REPORT RAIN FOR SNOW...
$$

 *****  OTHER OBSERVATIONS SOUTHEAST NORTH DAKOTA *****

CITY           SKY/WX    TMP DP  RH WIND       PRES   REMARKS
COOPERSTOWN    NOT AVBL
VALLEY CITY    FAIR      63  63 100 NW9       30.06R
OAKES          NOT AVBL
GWINNER          N/A     66  66 100 N15       30.05R
BUFFALO        NOT AVBL
WYNDMERE       NOT AVBL
 ***** THE ABOVE OBSERVATIONS ARE NON NWS ARE NOT QUALITY
       CONTROLLED AND MAY MIS-REPORT RAIN FOR SNOW...
$$

  *****  WEATHER ACROSS NORTHERN MINNESOTA  *****

CITY           SKY/WX    TMP DP  RH WIND       PRES   REMARKS
FLAG ISLAND    CLOUDY    64  55  72 N15       29.92R
WARROAD        NOT AVBL
ROSEAU         MOSUNNY   57  54  88 NW7       29.96R
HALLOCK        PTCLDY    63  59  88 NW8       30.00R
THF RVR FALLS  PTCLDY    63  59  88 NW12      29.99R
6HR MIN TEMP:  61; 6HR MAX TEMP:  64; 6HR PCP:  0.34;

HALSTAD        NOT AVBL
FOSSTON        MOSUNNY   61  59  94 NW12      30.00R
BAUDETTE       CLOUDY    63  59  87 NW13      29.92R
6HR MIN TEMP:  63; 6HR MAX TEMP:  67; 6HR PCP:  0.26;

WASKISH        CLOUDY    64  63  94 NW14G21   29.92R
CROOKSTON      NOT AVBL
$$
  *****  WEATHER ACROSS CENTRAL AND WEST MINNESOTA  *****

CITY           SKY/WX    TMP DP  RH WIND       PRES   REMARKS
BEMIDJI        CLOUDY    62  60  94 NW14G24   29.95R
PARK RAPIDS    CLOUDY    64  62  93 NW15      29.96R
6HR MIN TEMP:  64; 6HR MAX TEMP:  67; 6HR PCP: TRACE;

WADENA         CLOUDY    64  63  94 W10G16    29.96R
DETROIT LAKES  CLOUDY    63  63 100 NW20G28   30.01R FOG
MOORHEAD       CLEAR     64  64 100 NW9       30.02R
FERGUS FALLS   CLOUDY    66  63  88 NW15G21   30.00R
ELBOW LAKE     CLOUDY    65  64  95 NW16      29.99S
MORRIS MN      CLEAR     66  64  94 NW8       30.00R
STAPLES        MOSUNNY   64  61  88 NW12      29.95R
WHEATON        PTCLDY    64  63  94 W7        30.03S
$$
  *****  WEATHER ELSEWHERE ACROSS MINNESOTA  *****

CITY           SKY/WX    TMP DP  RH WIND       PRES   REMARKS
DULUTH         CLOUDY    68  64  87 W16G24    29.79R
6HR MIN TEMP:  67; 6HR MAX TEMP:  79; 6HR PCP:  0.31;

INTRNTL FALLS  CLOUDY    65  63  93 NW13      29.83R
6HR MIN TEMP:  65; 6HR MAX TEMP:  68; 6HR PCP:  0.58;

ELY            LGT RAIN  64  64 100 W6        29.73R
CLOQUET        PTSUNNY   68  63  83 W12G20    29.81R
BRAINERD       CLOUDY    67  63  87 NW15      29.92R
6HR MIN TEMP:  65; 6HR MAX TEMP:  67;

HIBBING        CLOUDY    67  63  87 NW15G23   29.81R
6HR MIN TEMP:  66; 6HR MAX TEMP:  72; 6HR PCP:  0.19;

ALEXANDRIA     MOCLDY    67  63  87 NW16      30.00R
6HR MIN TEMP:  66; 6HR MAX TEMP:  68;

SAINT CLOUD    MOSUNNY   71  63  75 W12       29.93R
6HR MIN TEMP:  70; 6HR MAX TEMP:  74;

MINNEAPOLIS    MOSUNNY   75  63  66 NW15G26   29.89R
6HR MIN TEMP:  75; 6HR MAX TEMP:  82;

$$

  *****  WEATHER ACROSS SOUTH DAKOTA  *****

CITY           SKY/WX    TMP DP  RH WIND       PRES   REMARKS
SIOUX FALLS    CLOUDY    70  63  78 NE12      29.99F THUNDER
6HR MIN TEMP:  70; 6HR MAX TEMP:  78; 6HR PCP: TRACE;

BROOKINGS      NOT AVBL
WATERTOWN      CLOUDY    66  63  90 NW7       30.06R
6HR MIN TEMP:  65; 6HR MAX TEMP:  72; 6HR PCP: TRACE;

HURON          MOCLDY    65  63  93 N10       30.04R
6HR MIN TEMP:  65; 6HR MAX TEMP:  71; 6HR PCP: TRACE;

SISSETON         N/A     66  65  96 N9        30.02R
ABERDEEN       PTCLDY    63  62  97 N9        30.06R
6HR MIN TEMP:  61; 6HR MAX TEMP:  65;

MITCHELL       MOCLDY    68  64  87 NW15      30.01R
PIERRE         CLOUDY    65  64  97 NW5       30.11R
6HR MIN TEMP:  64; 6HR MAX TEMP:  70; 6HR PCP:  0.01;

MOBRIDGE       MOCLDY    64  62  93 N5        30.11R
RAPID CITY     MOCLDY    65  62  90 S7        30.19R
6HR MIN TEMP:  62; 6HR MAX TEMP:  68; 6HR PCP:  0.05;

$$

  *****  SOME WEATHER IN NEARBY STATES *****

CITY           SKY/WX    TMP DP  RH WIND       PRES   REMARKS
GLASGOW MT     CLEAR     56  53  90 NE6       30.13R
6HR MIN TEMP:  55; 6HR MAX TEMP:  65;

GREAT FALLS MT CLOUDY    56  49  77 NW5       30.15R
6HR MIN TEMP:  55; 6HR MAX TEMP:  62;

CHEYENNE WY    CLEAR     62  50  64 N16G23    30.32R
6HR MIN TEMP:  61; 6HR MAX TEMP:  68;

SCOTTSBLUFF NE CLEAR     68  60  75 CALM      30.20R
6HR MIN TEMP:  63; 6HR MAX TEMP:  71;

OMAHA NE       MOCLDY    83  70  64 S6        29.93R
6HR MIN TEMP:  82; 6HR MAX TEMP:  90; 6HR PCP: TRACE;

DES MOINES IA  LGT RAIN  80  74  81 S9        29.93R
6HR MIN TEMP:  80; 6HR MAX TEMP:  83; 6HR PCP: TRACE;

DAVENPORT IA   SUNNY     74  67  78 S15       29.98F
6HR MIN TEMP:  73; 6HR MAX TEMP:  75;

CHICAGO IL     MOSUNNY   73  62  68 S9        30.05F
6HR MIN TEMP:  69; 6HR MAX TEMP:  73;

EAU CLAIRE WI  CLOUDY    79  74  84 SW13      29.85R
6HR MIN TEMP:  78; 6HR MAX TEMP:  79;

LA CROSSE WI   SUNNY     78  69  73 S7        29.87R
6HR MIN TEMP:  77; 6HR MAX TEMP:  81; 6HR PCP: TRACE;

$$

  *****  SOME NATIONAL WEATHER *****

CITY           SKY/WX    TMP DP  RH WIND       PRES   REMARKS
LA GUARDIA NY  MOSUNNY   76  63  64 CALM      30.17S
6HR MIN TEMP:  72; 6HR MAX TEMP:  76;



USA.gov is the U.S. government's official web portal to all federal, state and local government web resources and services.